Year,Month,Day,Hour,Minute,Value (Times are PST for insolation in W/m^2)
2014,03,27,00,00,0.00
2014,03,27,00,01,0.00
2014,03,27,00,02,0.00
2014,03,27,00,03,0.00
2014,03,27,00,04,0.00
2014,03,27,00,05,0.00
2014,03,27,00,06,0.00
2014,03,27,00,07,0.00
2014,03,27,00,08,0.00
2014,03,27,00,09,0.00
2014,03,27,00,10,0.00
2014,03,27,00,11,0.00
2014,03,27,00,12,0.00
2014,03,27,00,13,0.00
2014,03,27,00,14,0.00
2014,03,27,00,15,0.00
2014,03,27,00,16,0.00
2014,03,27,00,17,0.00
2014,03,27,00,18,0.00
2014,03,27,00,19,0.00
2014,03,27,00,20,0.00
2014,03,27,00,21,0.00
2014,03,27,00,22,0.00
2014,03,27,00,23,0.00
2014,03,27,00,24,0.00
2014,03,27,00,25,0.00
2014,03,27,00,26,0.00
2014,03,27,00,27,0.00
2014,03,27,00,28,0.00
2014,03,27,00,29,0.00
2014,03,27,00,30,0.00
2014,03,27,00,31,0.00
2014,03,27,00,32,0.00
2014,03,27,00,33,0.00
2014,03,27,00,34,0.00
2014,03,27,00,35,0.00
2014,03,27,00,36,0.00
2014,03,27,00,37,0.00
2014,03,27,00,38,0.00
2014,03,27,00,39,0.00
2014,03,27,00,40,0.00
2014,03,27,00,41,0.00
2014,03,27,00,42,0.00
2014,03,27,00,43,0.00
2014,03,27,00,44,0.00
2014,03,27,00,45,0.00
2014,03,27,00,46,0.00
2014,03,27,00,47,0.00
2014,03,27,00,48,0.00
2014,03,27,00,49,0.00
2014,03,27,00,50,0.00
2014,03,27,00,51,0.00
2014,03,27,00,52,0.00
2014,03,27,00,53,0.00
2014,03,27,00,54,0.00
2014,03,27,00,55,0.00
2014,03,27,00,56,0.00
2014,03,27,00,57,0.00
2014,03,27,00,58,0.00
2014,03,27,00,59,0.00
2014,03,27,01,00,0.00
2014,03,27,01,01,0.00
2014,03,27,01,02,0.00
2014,03,27,01,03,0.00
2014,03,27,01,04,0.00
2014,03,27,01,05,0.00
2014,03,27,01,06,0.00
2014,03,27,01,07,0.00
2014,03,27,01,08,0.00
2014,03,27,01,09,0.00
2014,03,27,01,10,0.00
2014,03,27,01,11,0.00
2014,03,27,01,12,0.00
2014,03,27,01,13,0.00
2014,03,27,01,14,0.00
2014,03,27,01,15,0.00
2014,03,27,01,16,0.00
2014,03,27,01,17,0.00
2014,03,27,01,18,0.00
2014,03,27,01,19,0.00
2014,03,27,01,20,0.00
2014,03,27,01,21,0.00
2014,03,27,01,22,0.00
2014,03,27,01,23,0.00
2014,03,27,01,24,0.00
2014,03,27,01,25,0.00
2014,03,27,01,26,0.00
2014,03,27,01,27,0.00
2014,03,27,01,28,0.00
2014,03,27,01,29,0.00
2014,03,27,01,30,0.00
2014,03,27,01,31,0.00
2014,03,27,01,32,0.00
2014,03,27,01,33,0.00
2014,03,27,01,34,0.00
2014,03,27,01,35,0.00
2014,03,27,01,36,0.00
2014,03,27,01,37,0.00
2014,03,27,01,38,0.00
2014,03,27,01,39,0.00
2014,03,27,01,40,0.00
2014,03,27,01,41,0.00
2014,03,27,01,42,0.00
2014,03,27,01,43,0.00
2014,03,27,01,44,0.00
2014,03,27,01,45,0.00
2014,03,27,01,46,0.00
2014,03,27,01,47,0.00
2014,03,27,01,48,0.00
2014,03,27,01,49,0.00
2014,03,27,01,50,0.00
2014,03,27,01,51,0.00
2014,03,27,01,52,0.00
2014,03,27,01,53,0.00
2014,03,27,01,54,0.00
2014,03,27,01,55,0.00
2014,03,27,01,56,0.00
2014,03,27,01,57,0.00
2014,03,27,01,58,0.00
2014,03,27,01,59,0.00
2014,03,27,02,00,0.00
2014,03,27,02,01,0.00
2014,03,27,02,02,0.00
2014,03,27,02,03,0.00
2014,03,27,02,04,0.00
2014,03,27,02,05,0.00
2014,03,27,02,06,0.00
2014,03,27,02,07,0.00
2014,03,27,02,08,0.00
2014,03,27,02,09,0.00
2014,03,27,02,10,0.00
2014,03,27,02,11,0.00
2014,03,27,02,12,0.00
2014,03,27,02,13,0.00
2014,03,27,02,14,0.00
2014,03,27,02,15,0.00
2014,03,27,02,16,0.00
2014,03,27,02,17,0.00
2014,03,27,02,18,0.00
2014,03,27,02,19,0.00
2014,03,27,02,20,0.00
2014,03,27,02,21,0.00
2014,03,27,02,22,0.00
2014,03,27,02,23,0.00
2014,03,27,02,24,0.00
2014,03,27,02,25,0.00
2014,03,27,02,26,0.00
2014,03,27,02,27,0.00
2014,03,27,02,28,0.00
2014,03,27,02,29,0.00
2014,03,27,02,30,0.00
2014,03,27,02,31,0.00
2014,03,27,02,32,0.00
2014,03,27,02,33,0.00
2014,03,27,02,34,0.00
2014,03,27,02,35,0.00
2014,03,27,02,36,0.00
2014,03,27,02,37,0.00
2014,03,27,02,38,0.00
2014,03,27,02,39,0.00
2014,03,27,02,40,0.00
2014,03,27,02,41,0.00
2014,03,27,02,42,0.00
2014,03,27,02,43,0.00
2014,03,27,02,44,0.00
2014,03,27,02,45,0.00
2014,03,27,02,46,0.00
2014,03,27,02,47,0.00
2014,03,27,02,48,0.00
2014,03,27,02,49,0.00
2014,03,27,02,50,0.00
2014,03,27,02,51,0.00
2014,03,27,02,52,0.00
2014,03,27,02,53,0.00
2014,03,27,02,54,0.00
2014,03,27,02,55,0.00
2014,03,27,02,56,0.00
2014,03,27,02,57,0.00
2014,03,27,02,58,0.00
2014,03,27,02,59,0.00
2014,03,27,03,00,0.00
2014,03,27,03,01,0.00
2014,03,27,03,02,0.00
2014,03,27,03,03,0.00
2014,03,27,03,04,0.00
2014,03,27,03,05,0.00
2014,03,27,03,06,0.00
2014,03,27,03,07,0.00
2014,03,27,03,08,0.00
2014,03,27,03,09,0.00
2014,03,27,03,10,0.00
2014,03,27,03,11,0.00
2014,03,27,03,12,0.00
2014,03,27,03,13,0.00
2014,03,27,03,14,0.00
2014,03,27,03,15,0.00
2014,03,27,03,16,0.00
2014,03,27,03,17,0.00
2014,03,27,03,18,0.00
2014,03,27,03,19,0.00
2014,03,27,03,20,0.00
2014,03,27,03,21,0.00
2014,03,27,03,22,0.00
2014,03,27,03,23,0.00
2014,03,27,03,24,0.00
2014,03,27,03,25,0.00
2014,03,27,03,26,0.00
2014,03,27,03,27,0.00
2014,03,27,03,28,0.00
2014,03,27,03,29,0.00
2014,03,27,03,30,0.00
2014,03,27,03,31,0.00
2014,03,27,03,32,0.00
2014,03,27,03,33,0.00
2014,03,27,03,34,0.00
2014,03,27,03,35,0.00
2014,03,27,03,36,0.00
2014,03,27,03,37,0.00
2014,03,27,03,38,0.00
2014,03,27,03,39,0.00
2014,03,27,03,40,0.00
2014,03,27,03,41,0.00
2014,03,27,03,42,0.00
2014,03,27,03,43,0.00
2014,03,27,03,44,0.00
2014,03,27,03,45,0.00
2014,03,27,03,46,0.00
2014,03,27,03,47,0.00
2014,03,27,03,48,0.00
2014,03,27,03,49,0.00
2014,03,27,03,50,0.00
2014,03,27,03,51,0.00
2014,03,27,03,52,0.00
2014,03,27,03,53,0.00
2014,03,27,03,54,0.00
2014,03,27,03,55,0.00
2014,03,27,03,56,0.00
2014,03,27,03,57,0.00
2014,03,27,03,58,0.00
2014,03,27,03,59,0.00
2014,03,27,04,00,0.00
2014,03,27,04,01,0.00
2014,03,27,04,02,0.00
2014,03,27,04,03,0.00
2014,03,27,04,04,0.00
2014,03,27,04,05,0.00
2014,03,27,04,06,0.00
2014,03,27,04,07,0.00
2014,03,27,04,08,0.00
2014,03,27,04,09,0.00
2014,03,27,04,10,0.00
2014,03,27,04,11,0.00
2014,03,27,04,12,0.00
2014,03,27,04,13,0.00
2014,03,27,04,14,0.00
2014,03,27,04,15,0.00
2014,03,27,04,16,0.00
2014,03,27,04,17,0.00
2014,03,27,04,18,0.00
2014,03,27,04,19,0.00
2014,03,27,04,20,0.00
2014,03,27,04,21,0.00
2014,03,27,04,22,0.00
2014,03,27,04,23,0.00
2014,03,27,04,24,0.00
2014,03,27,04,25,0.00
2014,03,27,04,26,0.00
2014,03,27,04,27,0.00
2014,03,27,04,28,0.00
2014,03,27,04,29,0.00
2014,03,27,04,30,0.00
2014,03,27,04,31,0.00
2014,03,27,04,32,0.00
2014,03,27,04,33,0.00
2014,03,27,04,34,0.00
2014,03,27,04,35,0.00
2014,03,27,04,36,0.00
2014,03,27,04,37,0.00
2014,03,27,04,38,0.00
2014,03,27,04,39,0.00
2014,03,27,04,40,0.00
2014,03,27,04,41,0.00
2014,03,27,04,42,0.00
2014,03,27,04,43,0.00
2014,03,27,04,44,0.00
2014,03,27,04,45,0.00
2014,03,27,04,46,0.00
2014,03,27,04,47,0.00
2014,03,27,04,48,0.00
2014,03,27,04,49,0.00
2014,03,27,04,50,0.00
2014,03,27,04,51,0.00
2014,03,27,04,52,0.00
2014,03,27,04,53,0.00
2014,03,27,04,54,0.00
2014,03,27,04,55,0.00
2014,03,27,04,56,0.00
2014,03,27,04,57,0.00
2014,03,27,04,58,0.00
2014,03,27,04,59,0.00
2014,03,27,05,00,0.00
2014,03,27,05,01,0.00
2014,03,27,05,02,0.00
2014,03,27,05,03,0.00
2014,03,27,05,04,0.00
2014,03,27,05,05,0.00
2014,03,27,05,06,0.00
2014,03,27,05,07,0.00
2014,03,27,05,08,0.00
2014,03,27,05,09,0.00
2014,03,27,05,10,0.00
2014,03,27,05,11,0.00
2014,03,27,05,12,0.00
2014,03,27,05,13,0.00
2014,03,27,05,14,0.00
2014,03,27,05,15,0.00
2014,03,27,05,16,0.00
2014,03,27,05,17,0.00
2014,03,27,05,18,0.00
2014,03,27,05,19,0.00
2014,03,27,05,20,0.00
2014,03,27,05,21,0.00
2014,03,27,05,22,0.00
2014,03,27,05,23,0.00
2014,03,27,05,24,0.00
2014,03,27,05,25,0.00
2014,03,27,05,26,0.00
2014,03,27,05,27,0.00
2014,03,27,05,28,0.00
2014,03,27,05,29,0.00
2014,03,27,05,30,0.00
2014,03,27,05,31,0.00
2014,03,27,05,32,0.00
2014,03,27,05,33,0.00
2014,03,27,05,34,0.00
2014,03,27,05,35,0.00
2014,03,27,05,36,0.00
2014,03,27,05,37,0.00
2014,03,27,05,38,0.00
2014,03,27,05,39,0.00
2014,03,27,05,40,0.00
2014,03,27,05,41,0.00
2014,03,27,05,42,0.00
2014,03,27,05,43,0.00
2014,03,27,05,44,0.00
2014,03,27,05,45,0.00
2014,03,27,05,46,0.00
2014,03,27,05,47,0.00
2014,03,27,05,48,0.00
2014,03,27,05,49,0.00
2014,03,27,05,50,0.00
2014,03,27,05,51,0.00
2014,03,27,05,52,0.00
2014,03,27,05,53,0.00
2014,03,27,05,54,0.00
2014,03,27,05,55,0.00
2014,03,27,05,56,0.00
2014,03,27,05,57,0.00
2014,03,27,05,58,0.00
2014,03,27,05,59,0.00
2014,03,27,06,00,0.00
2014,03,27,06,01,0.00
2014,03,27,06,02,0.00
2014,03,27,06,03,0.00
2014,03,27,06,04,0.00
2014,03,27,06,05,0.00
2014,03,27,06,06,0.00
2014,03,27,06,07,0.00
2014,03,27,06,08,0.00
2014,03,27,06,09,0.00
2014,03,27,06,10,0.00
2014,03,27,06,11,0.00
2014,03,27,06,12,0.00
2014,03,27,06,13,0.00
2014,03,27,06,14,0.00
2014,03,27,06,15,0.00
2014,03,27,06,16,0.00
2014,03,27,06,17,0.00
2014,03,27,06,18,0.00
2014,03,27,06,19,0.00
2014,03,27,06,20,0.00
2014,03,27,06,21,0.00
2014,03,27,06,22,0.00
2014,03,27,06,23,0.00
2014,03,27,06,24,0.00
2014,03,27,06,25,0.00
2014,03,27,06,26,0.00
2014,03,27,06,27,0.00
2014,03,27,06,28,0.00
2014,03,27,06,29,0.00
2014,03,27,06,30,0.00
2014,03,27,06,31,0.00
2014,03,27,06,32,0.00
2014,03,27,06,33,0.00
2014,03,27,06,34,0.00
2014,03,27,06,35,0.00
2014,03,27,06,36,0.00
2014,03,27,06,37,0.00
2014,03,27,06,38,0.00
2014,03,27,06,39,0.00
2014,03,27,06,40,0.00
2014,03,27,06,41,0.00
2014,03,27,06,42,0.00
2014,03,27,06,43,0.00
2014,03,27,06,44,0.00
2014,03,27,06,45,0.00
2014,03,27,06,46,0.00
2014,03,27,06,47,0.00
2014,03,27,06,48,0.00
2014,03,27,06,49,0.00
2014,03,27,06,50,0.00
2014,03,27,06,51,0.00
2014,03,27,06,52,0.00
2014,03,27,06,53,0.00
2014,03,27,06,54,0.00
2014,03,27,06,55,0.00
2014,03,27,06,56,0.00
2014,03,27,06,57,0.00
2014,03,27,06,58,0.00
2014,03,27,06,59,0.00
2014,03,27,07,00,0.00
2014,03,27,07,01,0.00
2014,03,27,07,02,0.00
2014,03,27,07,03,0.00
2014,03,27,07,04,0.00
2014,03,27,07,05,0.00
2014,03,27,07,06,3.30
2014,03,27,07,07,5.00
2014,03,27,07,08,5.00
2014,03,27,07,09,5.00
2014,03,27,07,10,6.80
2014,03,27,07,11,7.00
2014,03,27,07,12,7.00
2014,03,27,07,13,7.00
2014,03,27,07,14,7.00
2014,03,27,07,15,7.60
2014,03,27,07,16,9.00
2014,03,27,07,17,9.00
2014,03,27,07,18,9.00
2014,03,27,07,19,9.00
2014,03,27,07,20,9.00
2014,03,27,07,21,10.30
2014,03,27,07,22,11.00
2014,03,27,07,23,11.00
2014,03,27,07,24,11.00
2014,03,27,07,25,11.90
2014,03,27,07,26,12.00
2014,03,27,07,27,12.00
2014,03,27,07,28,12.00
2014,03,27,07,29,12.00
2014,03,27,07,30,12.60
2014,03,27,07,31,14.00
2014,03,27,07,32,14.80
2014,03,27,07,33,16.00
2014,03,27,07,34,17.00
2014,03,27,07,35,18.60
2014,03,27,07,36,19.00
2014,03,27,07,37,20.40
2014,03,27,07,38,22.50
2014,03,27,07,39,24.70
2014,03,27,07,40,25.00
2014,03,27,07,41,26.00
2014,03,27,07,42,28.20
2014,03,27,07,43,30.30
2014,03,27,07,44,32.00
2014,03,27,07,45,32.20
2014,03,27,07,46,33.70
2014,03,27,07,47,35.00
2014,03,27,07,48,36.00
2014,03,27,07,49,37.00
2014,03,27,07,50,38.20
2014,03,27,07,51,39.00
2014,03,27,07,52,39.00
2014,03,27,07,53,39.00
2014,03,27,07,54,39.90
2014,03,27,07,55,41.80
2014,03,27,07,56,42.10
2014,03,27,07,57,44.20
2014,03,27,07,58,46.10
2014,03,27,07,59,47.50
2014,03,27,08,00,49.60
2014,03,27,08,01,51.00
2014,03,27,08,02,51.00
2014,03,27,08,03,52.00
2014,03,27,08,04,53.00
2014,03,27,08,05,53.00
2014,03,27,08,06,53.00
2014,03,27,08,07,53.00
2014,03,27,08,08,53.80
2014,03,27,08,09,54.00
2014,03,27,08,10,54.00
2014,03,27,08,11,54.00
2014,03,27,08,12,54.00
2014,03,27,08,13,54.00
2014,03,27,08,14,54.90
2014,03,27,08,15,59.10
2014,03,27,08,16,64.30
2014,03,27,08,17,71.90
2014,03,27,08,18,80.80
2014,03,27,08,19,90.70
2014,03,27,08,20,100.30
2014,03,27,08,21,110.00
2014,03,27,08,22,116.60
2014,03,27,08,23,120.30
2014,03,27,08,24,122.70
2014,03,27,08,25,124.80
2014,03,27,08,26,123.00
2014,03,27,08,27,119.40
2014,03,27,08,28,112.60
2014,03,27,08,29,102.30
2014,03,27,08,30,93.10
2014,03,27,08,31,85.70
2014,03,27,08,32,79.10
2014,03,27,08,33,75.10
2014,03,27,08,34,71.90
2014,03,27,08,35,70.00
2014,03,27,08,36,70.00
2014,03,27,08,37,71.40
2014,03,27,08,38,73.50
2014,03,27,08,39,74.00
2014,03,27,08,40,78.50
2014,03,27,08,41,80.90
2014,03,27,08,42,81.00
2014,03,27,08,43,80.70
2014,03,27,08,44,78.60
2014,03,27,08,45,76.20
2014,03,27,08,46,72.70
2014,03,27,08,47,69.60
2014,03,27,08,48,67.20
2014,03,27,08,49,64.00
2014,03,27,08,50,63.00
2014,03,27,08,51,62.30
2014,03,27,08,52,62.00
2014,03,27,08,53,62.80
2014,03,27,08,54,64.70
2014,03,27,08,55,66.80
2014,03,27,08,56,69.00
2014,03,27,08,57,70.60
2014,03,27,08,58,76.40
2014,03,27,08,59,80.60
2014,03,27,09,00,87.40
2014,03,27,09,01,93.30
2014,03,27,09,02,99.50
2014,03,27,09,03,104.30
2014,03,27,09,04,109.10
2014,03,27,09,05,112.70
2014,03,27,09,06,116.50
2014,03,27,09,07,120.10
2014,03,27,09,08,124.00
2014,03,27,09,09,129.10
2014,03,27,09,10,134.50
2014,03,27,09,11,138.80
2014,03,27,09,12,141.00
2014,03,27,09,13,140.70
2014,03,27,09,14,138.60
2014,03,27,09,15,137.00
2014,03,27,09,16,137.70
2014,03,27,09,17,140.20
2014,03,27,09,18,145.30
2014,03,27,09,19,152.70
2014,03,27,09,20,160.00
2014,03,27,09,21,166.70
2014,03,27,09,22,171.10
2014,03,27,09,23,173.50
2014,03,27,09,24,174.00
2014,03,27,09,25,174.00
2014,03,27,09,26,175.90
2014,03,27,09,27,178.10
2014,03,27,09,28,179.30
2014,03,27,09,29,181.40
2014,03,27,09,30,183.80
2014,03,27,09,31,187.30
2014,03,27,09,32,190.00
2014,03,27,09,33,190.90
2014,03,27,09,34,192.00
2014,03,27,09,35,192.60
2014,03,27,09,36,194.30
2014,03,27,09,37,196.40
2014,03,27,09,38,198.50
2014,03,27,09,39,199.80
2014,03,27,09,40,203.60
2014,03,27,09,41,208.80
2014,03,27,09,42,213.10
2014,03,27,09,43,214.30
2014,03,27,09,44,217.00
2014,03,27,09,45,222.10
2014,03,27,09,46,225.00
2014,03,27,09,47,225.00
2014,03,27,09,48,224.00
2014,03,27,09,49,223.00
2014,03,27,09,50,223.00
2014,03,27,09,51,221.70
2014,03,27,09,52,220.30
2014,03,27,09,53,218.50
2014,03,27,09,54,206.00
2014,03,27,09,55,200.40
2014,03,27,09,56,200.20
2014,03,27,09,57,204.20
2014,03,27,09,58,205.10
2014,03,27,09,59,198.40
2014,03,27,10,00,191.60
2014,03,27,10,01,188.70
2014,03,27,10,02,195.30
2014,03,27,10,03,205.40
2014,03,27,10,04,216.40
2014,03,27,10,05,245.00
2014,03,27,10,06,273.40
2014,03,27,10,07,276.00
2014,03,27,10,08,275.50
2014,03,27,10,09,283.40
2014,03,27,10,10,285.00
2014,03,27,10,11,535.50
2014,03,27,10,12,526.30
2014,03,27,10,13,314.60
2014,03,27,10,14,361.70
2014,03,27,10,15,420.00
2014,03,27,10,16,380.70
2014,03,27,10,17,302.00
2014,03,27,10,18,305.30
2014,03,27,10,19,305.30
2014,03,27,10,20,325.40
2014,03,27,10,21,340.50
2014,03,27,10,22,371.90
2014,03,27,10,23,383.50
2014,03,27,10,24,420.60
2014,03,27,10,25,429.00
2014,03,27,10,26,486.80
2014,03,27,10,27,542.70
2014,03,27,10,28,571.40
2014,03,27,10,29,595.00
2014,03,27,10,30,605.00
2014,03,27,10,31,580.30
2014,03,27,10,32,531.00
2014,03,27,10,33,432.90
2014,03,27,10,34,325.00
2014,03,27,10,35,336.80
2014,03,27,10,36,316.30
2014,03,27,10,37,283.40
2014,03,27,10,38,326.20
2014,03,27,10,39,350.40
2014,03,27,10,40,350.20
2014,03,27,10,41,350.20
2014,03,27,10,42,357.50
2014,03,27,10,43,379.60
2014,03,27,10,44,379.40
2014,03,27,10,45,404.60
2014,03,27,10,46,412.70
2014,03,27,10,47,443.10
2014,03,27,10,48,439.00
2014,03,27,10,49,439.00
2014,03,27,10,50,389.40
2014,03,27,10,51,342.30
2014,03,27,10,52,339.60
2014,03,27,10,53,310.90
2014,03,27,10,54,282.30
2014,03,27,10,55,263.60
2014,03,27,10,56,258.20
2014,03,27,10,57,258.20
2014,03,27,10,58,260.70
2014,03,27,10,59,268.00
2014,03,27,11,00,285.40
2014,03,27,11,01,303.00
2014,03,27,11,02,320.70
2014,03,27,11,03,332.30
2014,03,27,11,04,337.00
2014,03,27,11,05,339.80
2014,03,27,11,06,342.30
2014,03,27,11,07,345.20
2014,03,27,11,08,349.10
2014,03,27,11,09,350.00
2014,03,27,11,10,340.00
2014,03,27,11,11,329.50
2014,03,27,11,12,328.60
2014,03,27,11,13,325.00
2014,03,27,11,14,323.00
2014,03,27,11,15,318.00
2014,03,27,11,16,322.70
2014,03,27,11,17,326.10
2014,03,27,11,18,348.20
2014,03,27,11,19,380.70
2014,03,27,11,20,423.70
2014,03,27,11,21,502.00
2014,03,27,11,22,538.30
2014,03,27,11,23,489.00
2014,03,27,11,24,467.30
2014,03,27,11,25,466.00
2014,03,27,11,26,536.50
2014,03,27,11,27,532.20
2014,03,27,11,28,455.40
2014,03,27,11,29,457.30
2014,03,27,11,30,422.20
2014,03,27,11,31,394.70
2014,03,27,11,32,366.10
2014,03,27,11,33,337.70
2014,03,27,11,34,315.10
2014,03,27,11,35,302.70
2014,03,27,11,36,303.70
2014,03,27,11,37,318.10
2014,03,27,11,38,330.00
2014,03,27,11,39,361.10
2014,03,27,11,40,373.20
2014,03,27,11,41,378.00
2014,03,27,11,42,382.70
2014,03,27,11,43,400.00
2014,03,27,11,44,400.80
2014,03,27,11,45,370.40
2014,03,27,11,46,333.30
2014,03,27,11,47,323.10
2014,03,27,11,48,330.00
2014,03,27,11,49,343.30
2014,03,27,11,50,357.10
2014,03,27,11,51,374.00
2014,03,27,11,52,386.00
2014,03,27,11,53,396.50
2014,03,27,11,54,405.00
2014,03,27,11,55,406.00
2014,03,27,11,56,417.50
2014,03,27,11,57,417.50
2014,03,27,11,58,412.00
2014,03,27,11,59,407.10
2014,03,27,12,00,410.70
2014,03,27,12,01,410.40
2014,03,27,12,02,401.10
2014,03,27,12,03,384.10
2014,03,27,12,04,383.00
2014,03,27,12,05,383.00
2014,03,27,12,06,378.50
2014,03,27,12,07,372.40
2014,03,27,12,08,367.10
2014,03,27,12,09,360.90
2014,03,27,12,10,357.30
2014,03,27,12,11,355.10
2014,03,27,12,12,359.70
2014,03,27,12,13,366.90
2014,03,27,12,14,367.00
2014,03,27,12,15,372.40
2014,03,27,12,16,378.30
2014,03,27,12,17,386.40
2014,03,27,12,18,392.00
2014,03,27,12,19,395.70
2014,03,27,12,20,407.30
2014,03,27,12,21,414.30
2014,03,27,12,22,422.10
2014,03,27,12,23,426.50
2014,03,27,12,24,448.40
2014,03,27,12,25,462.90
2014,03,27,12,26,483.90
2014,03,27,12,27,542.00
2014,03,27,12,28,565.60
2014,03,27,12,29,666.10
2014,03,27,12,30,731.00
2014,03,27,12,31,731.00
2014,03,27,12,32,731.00
2014,03,27,12,33,731.00
2014,03,27,12,34,945.80
2014,03,27,12,35,1145.10
2014,03,27,12,36,1148.00
2014,03,27,12,37,728.80
2014,03,27,12,38,541.10
2014,03,27,12,39,514.10
2014,03,27,12,40,540.00
2014,03,27,12,41,537.40
2014,03,27,12,42,518.70
2014,03,27,12,43,508.00
2014,03,27,12,44,514.50
2014,03,27,12,45,492.90
2014,03,27,12,46,505.70
2014,03,27,12,47,535.60
2014,03,27,12,48,471.50
2014,03,27,12,49,405.00
2014,03,27,12,50,381.60
2014,03,27,12,51,362.30
2014,03,27,12,52,354.10
2014,03,27,12,53,366.90
2014,03,27,12,54,367.60
2014,03,27,12,55,359.80
2014,03,27,12,56,346.60
2014,03,27,12,57,339.60
2014,03,27,12,58,349.90
2014,03,27,12,59,390.50
2014,03,27,13,00,448.90
2014,03,27,13,01,446.00
2014,03,27,13,02,388.10
2014,03,27,13,03,277.20
2014,03,27,13,04,246.50
2014,03,27,13,05,235.30
2014,03,27,13,06,235.30
2014,03,27,13,07,241.00
2014,03,27,13,08,257.50
2014,03,27,13,09,283.30
2014,03,27,13,10,312.40
2014,03,27,13,11,351.50
2014,03,27,13,12,418.00
2014,03,27,13,13,438.90
2014,03,27,13,14,564.00
2014,03,27,13,15,564.00
2014,03,27,13,16,564.00
2014,03,27,13,17,604.40
2014,03,27,13,18,670.00
2014,03,27,13,19,775.80
2014,03,27,13,20,860.80
2014,03,27,13,21,845.70
2014,03,27,13,22,832.00
2014,03,27,13,23,819.50
2014,03,27,13,24,805.00
2014,03,27,13,25,794.00
2014,03,27,13,26,788.70
2014,03,27,13,27,778.30
2014,03,27,13,28,772.40
2014,03,27,13,29,777.10
2014,03,27,13,30,786.00
2014,03,27,13,31,786.00
2014,03,27,13,32,786.80
2014,03,27,13,33,788.00
2014,03,27,13,34,788.00
2014,03,27,13,35,788.00
2014,03,27,13,36,788.00
2014,03,27,13,37,370.90
2014,03,27,13,38,234.10
2014,03,27,13,39,181.30
2014,03,27,13,40,150.20
2014,03,27,13,41,148.00
2014,03,27,13,42,148.00
2014,03,27,13,43,148.00
2014,03,27,13,44,148.00
2014,03,27,13,45,354.90
2014,03,27,13,46,872.00
2014,03,27,13,47,579.10
2014,03,27,13,48,173.10
2014,03,27,13,49,204.60
2014,03,27,13,50,230.80
2014,03,27,13,51,207.00
2014,03,27,13,52,183.60
2014,03,27,13,53,199.60
2014,03,27,13,54,204.00
2014,03,27,13,55,204.00
2014,03,27,13,56,764.30
2014,03,27,13,57,742.60
2014,03,27,13,58,283.00
2014,03,27,13,59,283.00
2014,03,27,14,00,283.00
2014,03,27,14,01,283.00
2014,03,27,14,02,283.00
2014,03,27,14,03,221.10
2014,03,27,14,04,153.00
2014,03,27,14,05,154.20
2014,03,27,14,06,150.30
2014,03,27,14,07,163.00
2014,03,27,14,08,198.00
2014,03,27,14,09,207.00
2014,03,27,14,10,282.10
2014,03,27,14,11,290.00
2014,03,27,14,12,287.30
2014,03,27,14,13,259.00
2014,03,27,14,14,236.20
2014,03,27,14,15,215.40
2014,03,27,14,16,202.30
2014,03,27,14,17,196.50
2014,03,27,14,18,191.60
2014,03,27,14,19,194.70
2014,03,27,14,20,209.00
2014,03,27,14,21,225.30
2014,03,27,14,22,236.40
2014,03,27,14,23,242.00
2014,03,27,14,24,243.80
2014,03,27,14,25,236.80
2014,03,27,14,26,229.30
2014,03,27,14,27,240.90
2014,03,27,14,28,261.00
2014,03,27,14,29,277.50
2014,03,27,14,30,325.30
2014,03,27,14,31,334.00
2014,03,27,14,32,334.00
2014,03,27,14,33,334.00
2014,03,27,14,34,297.30
2014,03,27,14,35,256.30
2014,03,27,14,36,249.00
2014,03,27,14,37,245.10
2014,03,27,14,38,220.80
2014,03,27,14,39,191.70
2014,03,27,14,40,179.90
2014,03,27,14,41,180.90
2014,03,27,14,42,193.50
2014,03,27,14,43,210.30
2014,03,27,14,44,217.20
2014,03,27,14,45,209.40
2014,03,27,14,46,190.00
2014,03,27,14,47,174.50
2014,03,27,14,48,178.40
2014,03,27,14,49,202.80
2014,03,27,14,50,218.00
2014,03,27,14,51,218.00
2014,03,27,14,52,701.60
2014,03,27,14,53,895.00
2014,03,27,14,54,895.00
2014,03,27,14,55,895.00
2014,03,27,14,56,895.00
2014,03,27,14,57,868.80
2014,03,27,14,58,877.00
2014,03,27,14,59,877.00
2014,03,27,15,00,879.60
2014,03,27,15,01,886.00
2014,03,27,15,02,886.00
2014,03,27,15,03,841.50
2014,03,27,15,04,788.00
2014,03,27,15,05,788.00
2014,03,27,15,06,788.00
2014,03,27,15,07,846.60
2014,03,27,15,08,862.40
2014,03,27,15,09,841.20
2014,03,27,15,10,827.00
2014,03,27,15,11,810.80
2014,03,27,15,12,809.00
2014,03,27,15,13,803.90
2014,03,27,15,14,757.00
2014,03,27,15,15,689.00
2014,03,27,15,16,689.00
2014,03,27,15,17,536.20
2014,03,27,15,18,288.00
2014,03,27,15,19,288.00
2014,03,27,15,20,288.00
2014,03,27,15,21,219.30
2014,03,27,15,22,210.70
2014,03,27,15,23,221.00
2014,03,27,15,24,407.90
2014,03,27,15,25,439.00
2014,03,27,15,26,356.10
2014,03,27,15,27,352.00
2014,03,27,15,28,369.30
2014,03,27,15,29,473.00
2014,03,27,15,30,560.80
2014,03,27,15,31,792.00
2014,03,27,15,32,786.00
2014,03,27,15,33,786.00
2014,03,27,15,34,786.00
2014,03,27,15,35,786.00
2014,03,27,15,36,404.00
2014,03,27,15,37,213.00
2014,03,27,15,38,213.00
2014,03,27,15,39,596.70
2014,03,27,15,40,685.60
2014,03,27,15,41,677.40
2014,03,27,15,42,693.60
2014,03,27,15,43,702.70
2014,03,27,15,44,719.00
2014,03,27,15,45,717.10
2014,03,27,15,46,710.30
2014,03,27,15,47,704.70
2014,03,27,15,48,688.30
2014,03,27,15,49,655.70
2014,03,27,15,50,634.90
2014,03,27,15,51,610.00
2014,03,27,15,52,570.10
2014,03,27,15,53,617.70
2014,03,27,15,54,633.50
2014,03,27,15,55,626.70
2014,03,27,15,56,634.60
2014,03,27,15,57,635.00
2014,03,27,15,58,626.00
2014,03,27,15,59,626.00
2014,03,27,16,00,621.60
2014,03,27,16,01,606.00
2014,03,27,16,02,586.50
2014,03,27,16,03,580.00
2014,03,27,16,04,554.90
2014,03,27,16,05,522.00
2014,03,27,16,06,522.00
2014,03,27,16,07,557.00
2014,03,27,16,08,575.60
2014,03,27,16,09,581.10
2014,03,27,16,10,582.00
2014,03,27,16,11,577.90
2014,03,27,16,12,570.70
2014,03,27,16,13,568.00
2014,03,27,16,14,571.20
2014,03,27,16,15,585.40
2014,03,27,16,16,594.00
2014,03,27,16,17,526.60
2014,03,27,16,18,405.60
2014,03,27,16,19,435.50
2014,03,27,16,20,472.70
2014,03,27,16,21,471.00
2014,03,27,16,22,471.00
2014,03,27,16,23,573.00
2014,03,27,16,24,597.00
2014,03,27,16,25,581.50
2014,03,27,16,26,568.20
2014,03,27,16,27,560.80
2014,03,27,16,28,559.00
2014,03,27,16,29,559.00
2014,03,27,16,30,556.00
2014,03,27,16,31,539.30
2014,03,27,16,32,522.00
2014,03,27,16,33,527.50
2014,03,27,16,34,511.00
2014,03,27,16,35,445.70
2014,03,27,16,36,415.00
2014,03,27,16,37,415.00
2014,03,27,16,38,372.30
2014,03,27,16,39,359.00
2014,03,27,16,40,359.00
2014,03,27,16,41,294.70
2014,03,27,16,42,286.80
2014,03,27,16,43,304.00
2014,03,27,16,44,345.10
2014,03,27,16,45,503.40
2014,03,27,16,46,459.00
2014,03,27,16,47,459.00
2014,03,27,16,48,306.30
2014,03,27,16,49,147.10
2014,03,27,16,50,143.00
2014,03,27,16,51,134.30
2014,03,27,16,52,140.40
2014,03,27,16,53,146.40
2014,03,27,16,54,156.60
2014,03,27,16,55,159.80
2014,03,27,16,56,162.90
2014,03,27,16,57,175.00
2014,03,27,16,58,185.70
2014,03,27,16,59,191.00
2014,03,27,17,00,193.60
2014,03,27,17,01,187.60
2014,03,27,17,02,183.00
2014,03,27,17,03,185.30
2014,03,27,17,04,191.70
2014,03,27,17,05,197.90
2014,03,27,17,06,200.00
2014,03,27,17,07,199.30
2014,03,27,17,08,194.40
2014,03,27,17,09,187.00
2014,03,27,17,10,181.50
2014,03,27,17,11,179.10
2014,03,27,17,12,179.40
2014,03,27,17,13,183.40
2014,03,27,17,14,186.90
2014,03,27,17,15,191.40
2014,03,27,17,16,199.70